Fairbanks Ft. Wainwright, AK

2:57 AM AKDT on September 21, 2017 (GMT -0800)
Ladd Army Air Field

Weather History for PAFB - December, 2011

Change the Weather History Date:

Monday, December 12, 2011

  Actual Average Record
Temperature  
Mean Temperature 26 °F -  
Max Temperature 28 °F 0 °F 28 °F (2011)
Min Temperature 24 °F -7 °F -16 °F (2008)
Degree Days  
Heating Degree Days 39    
Moisture  
Dew Point 21 °F    
Average Humidity 81    
Maximum Humidity 86    
Minimum Humidity 69    
Precipitation  
Precipitation 0.00 in - - ()
Snow  
Snow 0.00 in - - ()
Snow Depth 6.00 in    
Sea Level Pressure  
Sea Level Pressure 29.35 in    
Wind  
Wind Speed 10 mph (WSW)    
Max Wind Speed 21 mph    
Max Gust Speed 23 mph    
Visibility 6 miles    
Events Snow    
Averages and records for this station are not official NWS values.
T = Trace of Precipitation, MM = Missing Value Source: NWS Daily Summary

Daily Weather History Graph

Daily Weather History Graph

Search for Another Location

Airport or City:

Trip Planner

Search our weather history database for the weather conditions in past years. The results will help you decide how hot, cold, wet, or windy it might be!

Date:

Astronomy

Dec. 12, 2011 Rise Set
Actual Time 10:46 AM AKST 2:41 PM AKST
Civil Twilight 9:23 AM AKST 4:04 PM AKST
Nautical Twilight 8:12 AM AKST 5:15 PM AKST
Astronomical Twilight 7:11 AM AKST 6:17 PM AKST
Moon 5:40 PM AKST (12/12) 11:51 AM AKST (12/12)
Length of Visible Light 6h 41m
Length of Day
3h 55m
Waning Gibbous, 95% of the Moon is Illuminated
Dec 12
Waning Gibbous
Dec 17
Last Quarter
Dec 24
New
Dec 31
First Quarter
Jan 8
Full

Hourly Weather History & Observations

Time (AKST) Temp. Windchill Dew Point Humidity Pressure Visibility Wind Dir Wind Speed Gust Speed Precip Events Conditions
6:30 AM 24.8 °F 15.3 °F 21.2 °F 86% 29.08 in 4.0 mi SSW 9.2 mph - N/A Snow Light Snow
6:55 AM 24.8 °F 16.9 °F 21.2 °F 86% 29.09 in 6.0 mi SW 6.9 mph - N/A Snow Light Snow
7:32 AM 24.8 °F 17.9 °F 21.2 °F 86% 29.12 in 7.0 mi Variable 5.8 mph - N/A   Overcast
7:44 AM 24.8 °F 17.9 °F 21.2 °F 86% 29.13 in 7.0 mi SW 5.8 mph - N/A Snow Light Snow
7:55 AM 24.8 °F 19.1 °F 21.2 °F 86% 29.15 in 4.0 mi Variable 4.6 mph - N/A Snow Light Snow
8:55 AM 26.6 °F 21.2 °F 23.0 °F 86% 29.15 in 7.0 mi Variable 4.6 mph - N/A Snow Light Snow
9:55 AM 28.4 °F 17.5 °F 24.8 °F 86% 29.23 in 6.0 mi WSW 13.8 mph - N/A Snow Light Snow
10:02 AM 28.4 °F 17.5 °F 24.8 °F 86% 29.23 in 4.0 mi WSW 13.8 mph - N/A Snow Light Snow
10:38 AM 26.6 °F 15.7 °F 21.2 °F 80% 29.26 in 13.0 mi WSW 12.7 mph 23.0 mph N/A Snow Light Snow
10:55 AM 26.6 °F 14.7 °F 21.2 °F 80% 29.28 in 13.0 mi WSW 15.0 mph - N/A Snow Light Snow
11:35 AM 26.6 °F 14.3 °F 21.2 °F 80% 29.31 in 2.0 mi WSW 16.1 mph - N/A Snow Light Snow Grains
11:39 AM 26.6 °F 14.3 °F 21.2 °F 80% 29.32 in 1.0 mi WSW 16.1 mph - N/A Snow Light Snow
11:44 AM 26.6 °F 14.3 °F 21.2 °F 80% 29.33 in 13.0 mi West 16.1 mph - N/A Snow Light Snow
11:55 AM 26.6 °F 12.7 °F 19.4 °F 74% 29.33 in 13.0 mi West 20.7 mph - N/A Snow Light Snow
12:55 PM 26.6 °F 16.8 °F 19.4 °F 74% 29.37 in 4.0 mi West 10.4 mph - N/A Snow Light Snow
1:55 PM 26.6 °F 15.2 °F 17.6 °F 69% 29.40 in 5.0 mi WSW 13.8 mph - N/A Snow Light Snow
2:40 PM 24.8 °F 11.9 °F 17.6 °F 74% 29.43 in 3.0 mi West 16.1 mph - N/A Snow Light Snow
2:55 PM 24.8 °F 12.4 °F 17.6 °F 74% 29.44 in 4.0 mi WSW 15.0 mph - N/A Snow Light Snow
3:55 PM 24.8 °F 14.0 °F 19.4 °F 80% 29.47 in 3.0 mi West 11.5 mph 19.6 mph N/A Snow Light Snow
4:55 PM 24.8 °F 15.3 °F 21.2 °F 86% 29.51 in 5.0 mi West 9.2 mph - N/A Snow Light Snow
5:55 PM 26.6 °F 16.8 °F 23.0 °F 86% 29.54 in 6.0 mi West 10.4 mph - N/A Snow Light Snow
6:55 PM 26.6 °F 17.5 °F 21.2 °F 80% 29.56 in 6.0 mi WSW 9.2 mph - N/A Snow Light Snow
7:42 PM 26.6 °F 17.5 °F 21.2 °F 80% 29.59 in 7.0 mi WSW 9.2 mph - N/A   Mostly Cloudy
7:55 PM 24.8 °F 16.9 °F 21.2 °F 86% 29.59 in 7.0 mi SW 6.9 mph - N/A   Overcast
8:55 PM 24.8 °F 16.1 °F 19.4 °F 80% 29.61 in 7.0 mi SW 8.1 mph - N/A   Mostly Cloudy
9:55 PM 24.8 °F 17.9 °F 19.4 °F 80% 29.64 in 7.0 mi West 5.8 mph - N/A   Mostly Cloudy